FFT1229 KDEN-KSFO

Flight info

Callsign FFT1229
Flight time 2h 9m
Altitude 34000
Route COORZ7 VOAXA Q136 OAL INYOE DYAMD5
Aircraft A320/M-SDE3FGHIRWY/LB1

Departure

Time 2026-05-07 04:51
Airport Denver International Airport (KDEN)

Arrival

Time 2026-05-07 07:00
Airport San Francisco International Airport (KSFO)
Time Latitude Longitude Altitude Speed Heading
2026-05-07 04:20 39.85466 -104.66702 5384 ft 0 kts 180°
2026-05-07 04:35 39.85485 -104.66702 5382 ft 4 kts 181°
2026-05-07 04:35 39.85512 -104.66704 5383 ft 4 kts 162°
2026-05-07 04:35 39.85533 -104.66720 5381 ft 4 kts 118°
2026-05-07 04:35 39.85537 -104.66735 5380 ft 0 kts 90°
2026-05-07 04:38 39.85537 -104.66684 5382 ft 14 kts 90°
2026-05-07 04:38 39.85573 -104.66547 5383 ft 16 kts 61°
2026-05-07 04:39 39.85585 -104.66413 5386 ft 13 kts 90°
2026-05-07 04:39 39.85584 -104.66319 5391 ft 7 kts 90°
2026-05-07 04:39 39.85590 -104.66264 5390 ft 10 kts 62°
2026-05-07 04:39 39.85734 -104.66234 5389 ft 26 kts
2026-05-07 04:40 39.85919 -104.66233 5386 ft 27 kts
2026-05-07 04:40 39.86109 -104.66233 5385 ft 28 kts 360°
2026-05-07 04:40 39.86312 -104.66230 5382 ft 29 kts
2026-05-07 04:40 39.86471 -104.66228 5381 ft 15 kts
2026-05-07 04:41 39.86566 -104.66233 5379 ft 13 kts 341°
2026-05-07 04:41 39.86591 -104.66336 5378 ft 13 kts 270°
2026-05-07 04:41 39.86592 -104.66456 5377 ft 14 kts 271°
2026-05-07 04:41 39.86628 -104.66573 5372 ft 14 kts 302°
2026-05-07 04:42 39.86641 -104.66671 5377 ft 8 kts 233°
2026-05-07 04:42 39.86594 -104.66684 5374 ft 0 kts 181°
2026-05-07 04:45 39.86559 -104.66683 5375 ft 11 kts 169°
2026-05-07 04:45 39.86535 -104.66599 5377 ft 10 kts 100°
2026-05-07 04:45 39.86506 -104.66521 5375 ft 9 kts 110°
2026-05-07 04:46 39.86502 -104.66409 5376 ft 15 kts 90°
2026-05-07 04:46 39.86501 -104.66276 5376 ft 14 kts 91°
2026-05-07 04:46 39.86500 -104.66155 5382 ft 12 kts 91°
2026-05-07 04:46 39.86499 -104.66045 5376 ft 13 kts 90°
2026-05-07 04:47 39.86498 -104.65903 5377 ft 19 kts 90°
2026-05-07 04:47 39.86496 -104.65715 5371 ft 22 kts 90°
2026-05-07 04:47 39.86495 -104.65508 5368 ft 24 kts 90°
2026-05-07 04:47 39.86493 -104.65274 5364 ft 27 kts 90°
2026-05-07 04:48 39.86490 -104.65024 5359 ft 28 kts 91°
2026-05-07 04:48 39.86489 -104.64782 5352 ft 20 kts 90°
2026-05-07 04:48 39.86488 -104.64597 5350 ft 22 kts 90°
2026-05-07 04:48 39.86487 -104.64391 5346 ft 24 kts 91°
2026-05-07 04:49 39.86485 -104.64235 5345 ft 12 kts 91°
2026-05-07 04:49 39.86472 -104.64146 5345 ft 9 kts 134°
2026-05-07 04:49 39.86426 -104.64132 5347 ft 0 kts 180°
2026-05-07 04:50 39.86281 -104.64133 5349 ft 56 kts 180°
2026-05-07 04:50 39.85666 -104.64141 5354 ft 118 kts 180°
2026-05-07 04:50 39.84674 -104.64164 5368 ft 165 kts 182°
2026-05-07 04:50 39.83493 -104.64227 5880 ft 175 kts 184°
2026-05-07 04:51 39.82219 -104.64504 6335 ft 195 kts 204°
2026-05-07 04:51 39.81129 -104.65601 6805 ft 207 kts 238°
2026-05-07 04:51 39.80796 -104.67408 7240 ft 216 kts 274°
2026-05-07 04:51 39.81119 -104.69432 7487 ft 241 kts 285°
2026-05-07 04:52 39.81631 -104.71612 7835 ft 261 kts 287°
2026-05-07 04:52 39.82138 -104.73909 8535 ft 267 kts 285°
2026-05-07 04:52 39.82576 -104.76270 9353 ft 270 kts 284°
2026-05-07 04:52 39.82950 -104.78683 9875 ft 273 kts 283°
2026-05-07 04:53 39.83271 -104.81114 9991 ft 272 kts 282°
2026-05-07 04:53 39.83552 -104.83549 10006 ft 271 kts 281°
2026-05-07 04:53 39.83814 -104.85975 10009 ft 271 kts 281°
2026-05-07 04:53 39.84071 -104.88428 10489 ft 274 kts 281°
2026-05-07 04:54 39.84303 -104.90900 11262 ft 277 kts 279°
2026-05-07 04:54 39.84427 -104.93389 11944 ft 281 kts 277°
2026-05-07 04:54 39.84493 -104.95951 12644 ft 286 kts 276°
2026-05-07 04:54 39.84539 -104.98557 13326 ft 290 kts 276°
2026-05-07 04:55 39.84582 -105.01196 14001 ft 294 kts 276°
2026-05-07 04:55 39.84631 -105.03869 14595 ft 297 kts 277°
2026-05-07 04:55 39.84686 -105.06574 15222 ft 300 kts 277°
2026-05-07 04:55 39.84745 -105.09297 15840 ft 303 kts 277°
2026-05-07 04:56 39.84806 -105.12041 16452 ft 305 kts 277°
2026-05-07 04:56 39.84870 -105.14820 17069 ft 308 kts 277°
2026-05-07 04:56 39.84936 -105.17619 17683 ft 311 kts 277°
2026-05-07 04:56 39.85003 -105.20445 18281 ft 314 kts 277°
2026-05-07 04:57 39.85070 -105.23295 18808 ft 316 kts 277°
2026-05-07 04:57 39.85136 -105.26174 19314 ft 320 kts 277°
2026-05-07 04:57 39.85200 -105.29076 19788 ft 322 kts 277°
2026-05-07 04:57 39.85263 -105.32005 20257 ft 326 kts 277°
2026-05-07 04:58 39.85328 -105.34962 20738 ft 329 kts 277°
2026-05-07 04:58 39.85394 -105.37948 21218 ft 331 kts 277°
2026-05-07 04:58 39.85459 -105.40959 21698 ft 334 kts 277°
2026-05-07 04:58 39.85523 -105.43997 22159 ft 337 kts 277°
2026-05-07 04:59 39.85591 -105.47060 22623 ft 341 kts 277°
2026-05-07 04:59 39.85657 -105.50204 22785 ft 354 kts 276°
2026-05-07 04:59 39.85721 -105.53462 22930 ft 365 kts 276°
2026-05-07 04:59 39.85782 -105.56772 23069 ft 377 kts 276°
2026-05-07 05:00 39.85844 -105.60261 23341 ft 384 kts 276°
2026-05-07 05:00 39.85909 -105.63746 23741 ft 387 kts 276°
2026-05-07 05:00 39.85976 -105.67218 24128 ft 390 kts 277°
2026-05-07 05:00 39.86044 -105.70809 24489 ft 394 kts 275°
2026-05-07 05:01 39.85865 -105.74407 24763 ft 404 kts 269°
2026-05-07 05:01 39.85560 -105.78067 25015 ft 409 kts 269°
2026-05-07 05:01 39.85243 -105.81754 25380 ft 412 kts 269°
2026-05-07 05:01 39.84916 -105.85467 25731 ft 414 kts 269°
2026-05-07 05:02 39.84584 -105.89200 26083 ft 417 kts 268°
2026-05-07 05:02 39.84249 -105.92958 26450 ft 419 kts 268°
2026-05-07 05:02 39.83916 -105.96678 26787 ft 421 kts 269°
2026-05-07 05:02 39.83582 -106.00470 27099 ft 423 kts 269°
2026-05-07 05:03 39.83250 -106.04278 27456 ft 425 kts 269°
2026-05-07 05:03 39.82917 -106.08103 27803 ft 427 kts 269°
2026-05-07 05:03 39.82579 -106.11945 28127 ft 429 kts 269°
2026-05-07 05:03 39.82237 -106.15805 28442 ft 431 kts 269°
2026-05-07 05:04 39.81892 -106.19682 28751 ft 433 kts 269°
2026-05-07 05:04 39.81544 -106.23580 29065 ft 435 kts 269°
2026-05-07 05:04 39.81194 -106.27497 29381 ft 437 kts 269°
2026-05-07 05:04 39.80840 -106.31430 29691 ft 439 kts 269°
2026-05-07 05:05 39.80483 -106.35388 29955 ft 441 kts 269°
2026-05-07 05:05 39.80123 -106.39351 30278 ft 442 kts 269°
2026-05-07 05:05 39.79760 -106.43327 30525 ft 444 kts 269°
2026-05-07 05:05 39.79394 -106.47317 30764 ft 445 kts 268°
2026-05-07 05:06 39.79026 -106.51318 31001 ft 446 kts 268°
2026-05-07 05:06 39.78651 -106.55311 31319 ft 445 kts 268°
2026-05-07 05:06 39.78243 -106.59300 31681 ft 444 kts 268°
2026-05-07 05:06 39.77811 -106.63268 32027 ft 443 kts 267°
2026-05-07 05:07 39.77367 -106.67228 32358 ft 442 kts 267°
2026-05-07 05:07 39.76921 -106.71173 32673 ft 440 kts 267°
2026-05-07 05:07 39.76477 -106.75092 33102 ft 437 kts 268°
2026-05-07 05:07 39.76041 -106.78990 33446 ft 435 kts 268°
2026-05-07 05:08 39.75613 -106.82874 33782 ft 433 kts 268°
2026-05-07 05:08 39.75189 -106.86745 34115 ft 432 kts 268°
2026-05-07 05:08 39.74766 -106.90597 34303 ft 428 kts 268°
2026-05-07 05:08 39.74343 -106.94404 34316 ft 423 kts 268°
2026-05-07 05:09 39.73502 -107.01941 34310 ft 421 kts 268°
2026-05-07 05:09 39.72667 -107.09413 34298 ft 421 kts 268°
2026-05-07 05:10 39.71818 -107.16928 34285 ft 421 kts 268°
2026-05-07 05:10 39.70966 -107.24442 34264 ft 420 kts 268°
2026-05-07 05:11 39.70100 -107.31947 34248 ft 421 kts 268°
2026-05-07 05:11 39.69235 -107.39459 34236 ft 421 kts 268°
2026-05-07 05:12 39.68374 -107.46978 34214 ft 421 kts 268°
2026-05-07 05:12 39.67503 -107.54516 34227 ft 422 kts 268°
2026-05-07 05:13 39.66614 -107.62055 34241 ft 423 kts 268°
2026-05-07 05:13 39.65717 -107.69606 34246 ft 423 kts 268°
2026-05-07 05:14 39.64824 -107.77157 34233 ft 423 kts 268°
2026-05-07 05:14 39.63928 -107.84712 34185 ft 423 kts 268°
2026-05-07 05:15 39.63023 -107.92263 34197 ft 424 kts 268°
2026-05-07 05:15 39.62268 -107.98533 34201 ft 424 kts 268°
2026-05-07 05:16 39.61359 -108.06088 34202 ft 424 kts 267°
2026-05-07 05:16 39.60439 -108.13639 34199 ft 423 kts 267°
2026-05-07 05:17 39.59516 -108.21163 34193 ft 423 kts 267°
2026-05-07 05:17 39.58596 -108.28698 34195 ft 423 kts 267°
2026-05-07 05:18 39.57664 -108.36236 34197 ft 424 kts 267°
2026-05-07 05:18 39.56723 -108.43775 34162 ft 423 kts 267°
2026-05-07 05:19 39.55781 -108.51307 34171 ft 424 kts 267°
2026-05-07 05:19 39.54831 -108.58846 34165 ft 424 kts 267°
2026-05-07 05:20 39.53876 -108.66385 34172 ft 424 kts 267°
2026-05-07 05:20 39.52923 -108.73870 34169 ft 424 kts 267°
2026-05-07 05:21 39.51478 -108.85171 34146 ft 424 kts 267°
2026-05-07 05:22 39.50512 -108.92718 34147 ft 425 kts 267°
2026-05-07 05:22 39.49536 -109.00269 34148 ft 425 kts 267°
2026-05-07 05:23 39.48549 -109.07813 34156 ft 425 kts 267°
2026-05-07 05:23 39.47556 -109.15364 34121 ft 426 kts 266°
2026-05-07 05:24 39.46560 -109.22924 34135 ft 427 kts 266°
2026-05-07 05:24 39.45567 -109.30497 34144 ft 427 kts 266°
2026-05-07 05:25 39.44569 -109.38074 34147 ft 427 kts 266°
2026-05-07 05:25 39.43556 -109.45653 34153 ft 428 kts 266°
2026-05-07 05:26 39.42532 -109.53238 34129 ft 428 kts 265°
2026-05-07 05:26 39.41501 -109.60824 34138 ft 429 kts 265°
2026-05-07 05:27 39.40474 -109.68415 34139 ft 429 kts 265°
2026-05-07 05:27 39.39441 -109.76013 34145 ft 429 kts 265°
2026-05-07 05:28 39.38403 -109.83612 34119 ft 429 kts 265°
2026-05-07 05:28 39.37361 -109.91155 34128 ft 429 kts 265°
2026-05-07 05:29 39.36306 -109.98750 34127 ft 430 kts 265°
2026-05-07 05:29 39.35286 -110.06350 34130 ft 429 kts 265°
2026-05-07 05:30 39.34285 -110.13946 34103 ft 429 kts 265°
2026-05-07 05:30 39.33269 -110.21543 34103 ft 429 kts 265°
2026-05-07 05:31 39.32232 -110.29133 34114 ft 429 kts 265°
2026-05-07 05:31 39.31190 -110.36730 34112 ft 430 kts 265°
2026-05-07 05:32 39.30156 -110.44330 34116 ft 430 kts 265°
2026-05-07 05:32 39.29116 -110.51929 34102 ft 430 kts 265°
2026-05-07 05:33 39.28062 -110.59525 34110 ft 430 kts 265°
2026-05-07 05:33 39.27007 -110.67115 34109 ft 430 kts 265°
2026-05-07 05:34 39.25950 -110.74705 34105 ft 429 kts 265°
2026-05-07 05:34 39.24885 -110.82283 34085 ft 429 kts 265°
2026-05-07 05:35 39.23810 -110.89856 34099 ft 429 kts 265°
2026-05-07 05:35 39.22740 -110.97377 34108 ft 429 kts 265°
2026-05-07 05:36 39.21670 -111.04941 34113 ft 429 kts 265°
2026-05-07 05:36 39.20596 -111.12505 34115 ft 429 kts 265°
2026-05-07 05:37 39.19512 -111.20065 34110 ft 429 kts 265°
2026-05-07 05:37 39.18413 -111.27629 34122 ft 429 kts 265°
2026-05-07 05:38 39.17317 -111.35193 34128 ft 430 kts 265°
2026-05-07 05:38 39.16217 -111.42758 34132 ft 429 kts 264°
2026-05-07 05:39 39.15107 -111.50323 34132 ft 430 kts 264°
2026-05-07 05:39 39.13993 -111.57877 34132 ft 429 kts 264°
2026-05-07 05:40 39.12875 -111.65435 34137 ft 430 kts 264°
2026-05-07 05:40 39.11754 -111.72995 34137 ft 430 kts 264°
2026-05-07 05:41 39.10627 -111.80560 34117 ft 430 kts 264°
2026-05-07 05:41 39.09489 -111.88116 34123 ft 430 kts 264°
2026-05-07 05:42 39.08348 -111.95676 34132 ft 430 kts 264°
2026-05-07 05:42 39.07211 -112.03236 34159 ft 431 kts 264°
2026-05-07 05:43 39.06066 -112.10803 34181 ft 431 kts 264°
2026-05-07 05:43 39.04917 -112.18308 34200 ft 431 kts 264°
2026-05-07 05:44 39.03752 -112.25871 34227 ft 431 kts 264°
2026-05-07 05:44 39.02590 -112.33425 34228 ft 431 kts 264°
2026-05-07 05:45 39.01427 -112.40982 34231 ft 431 kts 264°
2026-05-07 05:45 39.00256 -112.48536 34221 ft 431 kts 263°
2026-05-07 05:46 38.99070 -112.56092 34129 ft 431 kts 263°
2026-05-07 05:46 38.97875 -112.63651 34135 ft 432 kts 263°
2026-05-07 05:47 38.96684 -112.71212 34144 ft 432 kts 263°
2026-05-07 05:47 38.95493 -112.78778 34126 ft 432 kts 263°
2026-05-07 05:48 38.94284 -112.86347 34133 ft 433 kts 263°
2026-05-07 05:48 38.93069 -112.93917 34143 ft 433 kts 263°
2026-05-07 05:49 38.91861 -113.01489 34147 ft 433 kts 263°
2026-05-07 05:49 38.90642 -113.09065 34144 ft 433 kts 263°
2026-05-07 05:50 38.89416 -113.16635 34137 ft 433 kts 263°
2026-05-07 05:50 38.88185 -113.24202 34140 ft 433 kts 263°
2026-05-07 05:51 38.86949 -113.31772 34143 ft 433 kts 263°
2026-05-07 05:51 38.85709 -113.39339 34138 ft 433 kts 263°
2026-05-07 05:52 38.84462 -113.46906 34130 ft 434 kts 263°
2026-05-07 05:52 38.83207 -113.54473 34130 ft 433 kts 262°
2026-05-07 05:53 38.81953 -113.62033 34133 ft 434 kts 262°
2026-05-07 05:53 38.80695 -113.69594 34130 ft 434 kts 262°
2026-05-07 05:54 38.79427 -113.77154 34111 ft 434 kts 262°
2026-05-07 05:54 38.78151 -113.84710 34115 ft 434 kts 262°
2026-05-07 05:55 38.76888 -113.92215 34119 ft 434 kts 262°
2026-05-07 05:55 38.75608 -113.99775 34120 ft 434 kts 262°
2026-05-07 05:56 38.74326 -114.07335 34105 ft 434 kts 262°
2026-05-07 05:56 38.73027 -114.14893 34115 ft 435 kts 262°
2026-05-07 05:57 38.71724 -114.22449 34118 ft 434 kts 262°
2026-05-07 05:57 38.70418 -114.29997 34110 ft 434 kts 262°
2026-05-07 05:58 38.69115 -114.37546 34113 ft 434 kts 262°
2026-05-07 05:58 38.67809 -114.45087 34101 ft 434 kts 262°
2026-05-07 05:59 38.66493 -114.52613 34102 ft 433 kts 262°
2026-05-07 05:59 38.65176 -114.60129 34106 ft 433 kts 262°
2026-05-07 06:00 38.63857 -114.67634 34096 ft 432 kts 262°
2026-05-07 06:00 38.62524 -114.75131 34096 ft 432 kts 261°
2026-05-07 06:01 38.61196 -114.82622 34089 ft 432 kts 262°
2026-05-07 06:01 38.59875 -114.90069 34098 ft 433 kts 261°
2026-05-07 06:02 38.58533 -114.97588 34086 ft 434 kts 261°
2026-05-07 06:02 38.57184 -115.05107 34064 ft 434 kts 261°
2026-05-07 06:03 38.55828 -115.12627 34073 ft 434 kts 261°
2026-05-07 06:03 38.54467 -115.20148 34072 ft 434 kts 261°
2026-05-07 06:04 38.53099 -115.27660 34072 ft 434 kts 261°
2026-05-07 06:04 38.51727 -115.35176 34063 ft 434 kts 261°
2026-05-07 06:05 38.50352 -115.42683 34074 ft 434 kts 261°
2026-05-07 06:05 38.48978 -115.50191 34077 ft 434 kts 261°
2026-05-07 06:06 38.47597 -115.57684 34077 ft 434 kts 261°
2026-05-07 06:06 38.46442 -115.63911 34078 ft 434 kts 261°
2026-05-07 06:07 38.45048 -115.71388 34084 ft 433 kts 261°
2026-05-07 06:07 38.43655 -115.78851 34087 ft 432 kts 261°
2026-05-07 06:08 38.42261 -115.86306 34088 ft 432 kts 261°
2026-05-07 06:08 38.40867 -115.93756 34085 ft 432 kts 261°
2026-05-07 06:09 38.39460 -116.01197 34082 ft 432 kts 261°
2026-05-07 06:09 38.38048 -116.08632 34080 ft 431 kts 261°
2026-05-07 06:10 38.36647 -116.16013 34078 ft 431 kts 261°
2026-05-07 06:10 38.35232 -116.23438 34079 ft 431 kts 260°
2026-05-07 06:11 38.33809 -116.30854 34073 ft 431 kts 260°
2026-05-07 06:11 38.32315 -116.38255 34083 ft 432 kts 258°
2026-05-07 06:12 38.30643 -116.45607 34082 ft 432 kts 257°
2026-05-07 06:12 38.28934 -116.52941 34083 ft 432 kts 257°
2026-05-07 06:13 38.27256 -116.60288 34081 ft 432 kts 258°
2026-05-07 06:13 38.25606 -116.67631 34081 ft 432 kts 258°
2026-05-07 06:14 38.23952 -116.74966 34103 ft 432 kts 258°
2026-05-07 06:14 38.22283 -116.82304 34136 ft 432 kts 258°
2026-05-07 06:15 38.20603 -116.89628 34156 ft 431 kts 257°
2026-05-07 06:15 38.18917 -116.96945 34193 ft 431 kts 257°
2026-05-07 06:16 38.17231 -117.04261 34221 ft 431 kts 257°
2026-05-07 06:16 38.15556 -117.11516 34232 ft 431 kts 257°
2026-05-07 06:17 38.13868 -117.18824 34215 ft 431 kts 257°
2026-05-07 06:17 38.13023 -117.22469 34076 ft 431 kts 257°
2026-05-07 06:17 38.12175 -117.26121 34077 ft 431 kts 257°
2026-05-07 06:18 38.10485 -117.33409 34079 ft 430 kts 257°
2026-05-07 06:18 38.08796 -117.40693 34082 ft 430 kts 257°
2026-05-07 06:19 38.07111 -117.47982 34078 ft 430 kts 257°
2026-05-07 06:19 38.05426 -117.55265 34080 ft 430 kts 257°
2026-05-07 06:20 38.03730 -117.62544 34076 ft 430 kts 257°
2026-05-07 06:20 38.02024 -117.69817 34079 ft 430 kts 257°
2026-05-07 06:21 38.00374 -117.77106 34083 ft 428 kts 263°
2026-05-07 06:21 37.99561 -117.84491 34086 ft 426 kts 266°
2026-05-07 06:22 37.98783 -117.91937 34085 ft 426 kts 266°
2026-05-07 06:22 37.97595 -118.03090 34082 ft 426 kts 266°
2026-05-07 06:23 37.96801 -118.10524 34070 ft 426 kts 266°
2026-05-07 06:23 37.96005 -118.17955 34077 ft 426 kts 266°
2026-05-07 06:24 37.95203 -118.25381 34085 ft 426 kts 266°
2026-05-07 06:24 37.94399 -118.32812 34097 ft 426 kts 266°
2026-05-07 06:25 37.93587 -118.40241 34088 ft 426 kts 266°
2026-05-07 06:25 37.92771 -118.47665 34094 ft 426 kts 266°
2026-05-07 06:26 37.91946 -118.55087 34111 ft 426 kts 266°
2026-05-07 06:26 37.91136 -118.62460 34128 ft 426 kts 266°
2026-05-07 06:27 37.90304 -118.69883 34160 ft 426 kts 265°
2026-05-07 06:27 37.89467 -118.77299 34197 ft 426 kts 265°
2026-05-07 06:28 37.88633 -118.84719 34217 ft 425 kts 265°
2026-05-07 06:28 37.87795 -118.92129 34229 ft 425 kts 265°
2026-05-07 06:29 37.86954 -118.99542 34212 ft 425 kts 265°
2026-05-07 06:29 37.86097 -119.06946 34176 ft 425 kts 265°
2026-05-07 06:30 37.85244 -119.14344 34193 ft 425 kts 265°
2026-05-07 06:30 37.84386 -119.21734 34194 ft 425 kts 265°
2026-05-07 06:31 37.83517 -119.29128 34189 ft 425 kts 265°
2026-05-07 06:31 37.82644 -119.36514 34199 ft 425 kts 265°
2026-05-07 06:32 37.81774 -119.43910 34200 ft 425 kts 265°
2026-05-07 06:32 37.80897 -119.51305 34200 ft 425 kts 265°
2026-05-07 06:33 37.80010 -119.58700 34194 ft 426 kts 265°
2026-05-07 06:33 37.79131 -119.66048 34187 ft 426 kts 265°
2026-05-07 06:34 37.78231 -119.73491 34183 ft 426 kts 265°
2026-05-07 06:34 37.77326 -119.80883 34050 ft 424 kts 265°
2026-05-07 06:35 37.76884 -119.84483 33753 ft 417 kts 265°
2026-05-07 06:35 37.76440 -119.88084 33498 ft 413 kts 265°
2026-05-07 06:35 37.76003 -119.91658 33236 ft 410 kts 265°
2026-05-07 06:35 37.75566 -119.95261 32964 ft 409 kts 265°
2026-05-07 06:36 37.75139 -119.98761 32712 ft 408 kts 265°
2026-05-07 06:36 37.74703 -120.02277 32343 ft 403 kts 264°
2026-05-07 06:36 37.74268 -120.05764 31860 ft 400 kts 264°
2026-05-07 06:36 37.73838 -120.09227 31394 ft 398 kts 264°
2026-05-07 06:37 37.73413 -120.12667 30925 ft 395 kts 264°
2026-05-07 06:37 37.72987 -120.16085 30478 ft 393 kts 264°
2026-05-07 06:37 37.72562 -120.19488 30003 ft 391 kts 264°
2026-05-07 06:37 37.72140 -120.22859 29549 ft 387 kts 264°
2026-05-07 06:38 37.71722 -120.26198 29132 ft 382 kts 264°
2026-05-07 06:38 37.71309 -120.29496 28707 ft 378 kts 264°
2026-05-07 06:38 37.70897 -120.32757 28292 ft 374 kts 264°
2026-05-07 06:38 37.70488 -120.35990 27887 ft 371 kts 264°
2026-05-07 06:39 37.70081 -120.39191 27482 ft 368 kts 263°
2026-05-07 06:39 37.69678 -120.42367 27055 ft 365 kts 264°
2026-05-07 06:39 37.69300 -120.45522 26646 ft 362 kts 264°
2026-05-07 06:39 37.68937 -120.48659 26219 ft 360 kts 264°
2026-05-07 06:40 37.68582 -120.51780 25791 ft 359 kts 264°
2026-05-07 06:40 37.68227 -120.54892 25355 ft 358 kts 264°
2026-05-07 06:40 37.67868 -120.57995 24917 ft 357 kts 264°
2026-05-07 06:40 37.67508 -120.61096 24475 ft 357 kts 263°
2026-05-07 06:41 37.67148 -120.64197 24027 ft 357 kts 263°
2026-05-07 06:41 37.66784 -120.67298 23547 ft 357 kts 263°
2026-05-07 06:41 37.66418 -120.70394 23070 ft 356 kts 263°
2026-05-07 06:41 37.66053 -120.73473 22631 ft 354 kts 263°
2026-05-07 06:42 37.65691 -120.76537 22193 ft 352 kts 263°
2026-05-07 06:42 37.65326 -120.79585 21763 ft 350 kts 263°
2026-05-07 06:42 37.64959 -120.82619 21336 ft 349 kts 263°
2026-05-07 06:42 37.64588 -120.85638 20916 ft 348 kts 262°
2026-05-07 06:43 37.64219 -120.88649 20498 ft 347 kts 262°
2026-05-07 06:43 37.63855 -120.91650 20084 ft 346 kts 263°
2026-05-07 06:43 37.63492 -120.94648 19646 ft 345 kts 262°
2026-05-07 06:43 37.63127 -120.97645 19238 ft 345 kts 262°
2026-05-07 06:44 37.62742 -121.00633 18823 ft 345 kts 262°
2026-05-07 06:44 37.62345 -121.03619 18409 ft 345 kts 261°
2026-05-07 06:44 37.61943 -121.06604 17956 ft 345 kts 261°
2026-05-07 06:44 37.61543 -121.09538 17551 ft 343 kts 261°
2026-05-07 06:45 37.61139 -121.12498 17150 ft 342 kts 261°
2026-05-07 06:45 37.60742 -121.15447 16725 ft 341 kts 261°
2026-05-07 06:45 37.60343 -121.18421 16181 ft 345 kts 261°
2026-05-07 06:45 37.59938 -121.21395 15778 ft 344 kts 261°
2026-05-07 06:46 37.59535 -121.24356 15379 ft 342 kts 261°
2026-05-07 06:46 37.59139 -121.27308 14982 ft 341 kts 261°
2026-05-07 06:46 37.58774 -121.30259 14588 ft 340 kts 262°
2026-05-07 06:46 37.58438 -121.33204 14190 ft 339 kts 262°
2026-05-07 06:47 37.58110 -121.36143 13776 ft 338 kts 263°
2026-05-07 06:47 37.57783 -121.39076 13361 ft 337 kts 263°
2026-05-07 06:47 37.57459 -121.41987 12959 ft 334 kts 262°
2026-05-07 06:47 37.57133 -121.44874 12563 ft 332 kts 262°
2026-05-07 06:48 37.56802 -121.47750 12159 ft 330 kts 262°
2026-05-07 06:48 37.56470 -121.50601 11755 ft 328 kts 261°
2026-05-07 06:48 37.56139 -121.53437 11418 ft 324 kts 261°
2026-05-07 06:48 37.55816 -121.56205 11298 ft 313 kts 261°
2026-05-07 06:49 37.55504 -121.58878 11139 ft 305 kts 261°
2026-05-07 06:49 37.55196 -121.61496 10991 ft 299 kts 261°
2026-05-07 06:49 37.54717 -121.64048 10774 ft 302 kts 253°
2026-05-07 06:49 37.54117 -121.66603 10396 ft 302 kts 253°
2026-05-07 06:50 37.53514 -121.69118 10081 ft 299 kts 252°
2026-05-07 06:50 37.52910 -121.71620 9704 ft 297 kts 253°
2026-05-07 06:50 37.52310 -121.74102 9392 ft 293 kts 253°
2026-05-07 06:50 37.51730 -121.76506 9241 ft 279 kts 253°
2026-05-07 06:51 37.51181 -121.78790 8908 ft 268 kts 253°
2026-05-07 06:51 37.50642 -121.81036 8291 ft 268 kts 254°
2026-05-07 06:51 37.50110 -121.83244 7767 ft 265 kts 254°
2026-05-07 06:51 37.49572 -121.85479 7378 ft 263 kts 254°
2026-05-07 06:52 37.49180 -121.87687 7007 ft 261 kts 266°
2026-05-07 06:52 37.49217 -121.89951 6729 ft 257 kts 276°
2026-05-07 06:52 37.49355 -121.92185 6456 ft 255 kts 276°
2026-05-07 06:52 37.49486 -121.94404 6178 ft 254 kts 276°
2026-05-07 06:53 37.49614 -121.96619 5909 ft 253 kts 276°
2026-05-07 06:53 37.49740 -121.98825 5619 ft 253 kts 275°
2026-05-07 06:53 37.49866 -122.01026 5331 ft 251 kts 275°
2026-05-07 06:53 37.49989 -122.03203 5069 ft 248 kts 275°
2026-05-07 06:54 37.50111 -122.05357 4781 ft 246 kts 275°
2026-05-07 06:54 37.50232 -122.07493 4494 ft 243 kts 276°
2026-05-07 06:54 37.50452 -122.09582 4216 ft 239 kts 288°
2026-05-07 06:54 37.51126 -122.11470 3949 ft 234 kts 298°
2026-05-07 06:55 37.51874 -122.13230 3686 ft 221 kts 298°
2026-05-07 06:55 37.52578 -122.14891 3450 ft 209 kts 298°
2026-05-07 06:55 37.53237 -122.16450 3218 ft 193 kts 298°
2026-05-07 06:55 37.53823 -122.17836 3148 ft 166 kts 297°
2026-05-07 06:56 37.54338 -122.19056 2957 ft 151 kts 297°
2026-05-07 06:56 37.54819 -122.20194 2783 ft 144 kts 296°
2026-05-07 06:56 37.55287 -122.21303 2599 ft 142 kts 296°
2026-05-07 06:56 37.55747 -122.22393 2416 ft 140 kts 296°
2026-05-07 06:57 37.56202 -122.23474 2232 ft 139 kts 297°
2026-05-07 06:57 37.56655 -122.24547 2048 ft 138 kts 296°
2026-05-07 06:57 37.57103 -122.25610 1866 ft 137 kts 296°
2026-05-07 06:57 37.57550 -122.26672 1677 ft 137 kts 296°
2026-05-07 06:58 37.57844 -122.27369 1548 ft 136 kts 296°
2026-05-07 06:58 37.58436 -122.28776 1296 ft 136 kts 296°
2026-05-07 06:58 37.58731 -122.29477 1166 ft 136 kts 296°
2026-05-07 06:58 37.59176 -122.30533 988 ft 137 kts 296°
2026-05-07 06:59 37.59617 -122.31590 811 ft 135 kts 296°
2026-05-07 06:59 37.60048 -122.32618 625 ft 130 kts 296°
2026-05-07 06:59 37.60610 -122.33955 388 ft 129 kts 296°
2026-05-07 06:59 37.60897 -122.34624 271 ft 127 kts 296°
2026-05-07 07:00 37.61313 -122.35595 105 ft 125 kts 295°
2026-05-07 07:00 37.61716 -122.36544 26 ft 113 kts 296°
2026-05-07 07:00 37.61980 -122.37233 22 ft 62 kts 297°
2026-05-07 07:00 37.62104 -122.37528 25 ft 22 kts 298°
2026-05-07 07:01 37.62142 -122.37683 22 ft 17 kts 245°
2026-05-07 07:01 37.62085 -122.37764 22 ft 9 kts 227°
2026-05-07 07:01 37.62040 -122.37825 22 ft 10 kts 228°
2026-05-07 07:01 37.61990 -122.37897 22 ft 12 kts 228°
2026-05-07 07:02 37.61932 -122.37977 23 ft 13 kts 220°
2026-05-07 07:02 37.61843 -122.37983 22 ft 13 kts 154°
2026-05-07 07:02 37.61762 -122.37948 22 ft 12 kts 173°
2026-05-07 07:02 37.61687 -122.37956 22 ft 10 kts 195°
2026-05-07 07:03 37.61612 -122.37999 23 ft 17 kts 208°
2026-05-07 07:03 37.61495 -122.38078 22 ft 20 kts 208°
2026-05-07 07:03 37.61380 -122.38154 22 ft 15 kts 207°
2026-05-07 07:03 37.61317 -122.38241 22 ft 14 kts 253°
2026-05-07 07:04 37.61254 -122.38322 24 ft 14 kts 206°
2026-05-07 07:04 37.61207 -122.38352 22 ft 1 kts 207°
2026-05-07 07:04 37.61183 -122.38369 24 ft 4 kts 215°
2026-05-07 07:04 37.61184 -122.38396 22 ft 3 kts 285°
2026-05-07 07:05 37.61191 -122.38412 22 ft 2 kts 299°
2026-05-07 07:05 37.61195 -122.38422 24 ft 3 kts 297°
2026-05-07 07:05 37.61200 -122.38434 23 ft 1 kts 297°
2026-05-07 07:05 37.61201 -122.38436 23 ft 0 kts 297°